When you browse on this site, cookies collect data to enhance your experience and personalize the content and advertising you see.
Visit our Privacy Policy to learn more. By continuing to use the site, you agree to this use of cookies and data.
  • In Switzerland
  • List of Countries
  • For 7 days
  • Water Temperature
  • Weather Map
  • Weather Widgets
  • user-avatar
    Login

    Hourly Weather Linz

    Today, 1 June, Monday

    Time Temperature Precipitation Wind Pressure Humidity
    00:00 +10°C° 0.3 mm 1 mps 736 mmHg 96%
    01:00 +10°C° 0 mm 1 mps 736 mmHg 96%
    02:00 +10°C° 0 mm 1 mps 736 mmHg 96%
    03:00 +10°C° 0 mm 1 mps 736 mmHg 95%
    04:00 +9°C° 0 mm 1 mps 736 mmHg 95%
    05:00 +10°C° 0 mm 1 mps 736 mmHg 94%
    06:00 +11°C° 0 mm 1 mps 736 mmHg 92%
    07:00 +12°C° 0 mm 0 mps 736 mmHg 90%
    08:00 +15°C° 0 mm 1 mps 736 mmHg 84%
    09:00 +16°C° 0 mm 1 mps 736 mmHg 79%
    10:00 +19°C° 0 mm 1 mps 736 mmHg 74%
    11:00 +20°C° 0.1 mm 1 mps 736 mmHg 68%
    12:00 +21°C° 0.1 mm 1 mps 736 mmHg 62%
    13:00 +22°C° 0 mm 1 mps 736 mmHg 56%
    14:00 +22°C° 0 mm 1 mps 735 mmHg 56%
    15:00 +23°C° 0 mm 1 mps 735 mmHg 56%
    16:00 +23°C° 0 mm 1 mps 735 mmHg 56%
    17:00 +21°C° 0.1 mm 1 mps 735 mmHg 64%
    18:00 +20°C° 0.1 mm 1 mps 735 mmHg 71%
    19:00 +18°C° 0.1 mm 1 mps 735 mmHg 79%
    20:00 +16°C° 0.1 mm 1 mps 735 mmHg 82%
    21:00 +15°C° 0.1 mm 1 mps 735 mmHg 86%
    22:00 +13°C° 0.1 mm 1 mps 736 mmHg 89%
    23:00 +13°C° 0 mm 1 mps 736 mmHg 90%

    Tomorrow, 2 June, Tuesday

    Time Temperature Precipitation Wind Pressure Humidity
    00:00 +12°C° 0 mm 1 mps 736 mmHg 90%
    01:00 +12°C° 0 mm 1 mps 736 mmHg 90%
    02:00 +11°C° 0 mm 1 mps 736 mmHg 91%
    03:00 +10°C° 0 mm 1 mps 735 mmHg 92%
    04:00 +9°C° 0 mm 1 mps 735 mmHg 93%
    05:00 +10°C° 0 mm 0 mps 735 mmHg 88%
    06:00 +11°C° 0 mm 0 mps 735 mmHg 83%
    07:00 +13°C° 0 mm 0 mps 735 mmHg 78%
    08:00 +16°C° 0 mm 1 mps 735 mmHg 71%
    09:00 +18°C° 0 mm 1 mps 735 mmHg 64%
    10:00 +20°C° 0 mm 1 mps 734 mmHg 57%
    11:00 +20°C° 0.1 mm 2 mps 734 mmHg 56%
    12:00 +20°C° 0.1 mm 2 mps 734 mmHg 55%
    13:00 +21°C° 0.1 mm 2 mps 734 mmHg 55%
    14:00 +21°C° 0.5 mm 2 mps 733 mmHg 59%
    15:00 +20°C° 0.5 mm 2 mps 733 mmHg 63%
    16:00 +20°C° 0.5 mm 2 mps 732 mmHg 67%
    17:00 +20°C° 0.6 mm 1 mps 732 mmHg 73%
    18:00 +19°C° 0.6 mm 1 mps 732 mmHg 78%
    19:00 +16°C° 0.6 mm 1 mps 732 mmHg 84%
    20:00 +15°C° 0 mm 1 mps 732 mmHg 85%
    21:00 +14°C° 0 mm 1 mps 732 mmHg 86%
    22:00 +12°C° 0 mm 1 mps 732 mmHg 88%
    23:00 +12°C° 0 mm 1 mps 732 mmHg 88%

    Day after tomorrow, 3 June, Wednesday

    Time Temperature Precipitation Wind Pressure Humidity
    00:00 +12°C° 0 mm 1 mps 731 mmHg 89%
    01:00 +11°C° 0 mm 1 mps 731 mmHg 89%
    02:00 +11°C° 0 mm 1 mps 730 mmHg 89%
    03:00 +11°C° 0 mm 1 mps 730 mmHg 89%
    04:00 +10°C° 0 mm 1 mps 730 mmHg 90%
    05:00 +12°C° 0 mm 1 mps 729 mmHg 87%
    06:00 +14°C° 0 mm 1 mps 729 mmHg 84%
    07:00 +15°C° 0 mm 1 mps 729 mmHg 81%
    08:00 +18°C° 0 mm 1 mps 728 mmHg 75%
    09:00 +20°C° 0 mm 1 mps 728 mmHg 68%
    10:00 +21°C° 0 mm 1 mps 728 mmHg 61%
    11:00 +22°C° 0.1 mm 1 mps 727 mmHg 59%
    12:00 +23°C° 0.1 mm 1 mps 727 mmHg 56%
    13:00 +24°C° 0.1 mm 1 mps 726 mmHg 54%
    14:00 +24°C° 0 mm 1 mps 726 mmHg 55%
    15:00 +24°C° 0 mm 1 mps 725 mmHg 56%
    16:00 +23°C° 0 mm 2 mps 725 mmHg 58%
    17:00 +22°C° 0 mm 1 mps 725 mmHg 64%
    18:00 +21°C° 0 mm 1 mps 724 mmHg 71%
    19:00 +20°C° 0 mm 1 mps 724 mmHg 77%
    20:00 +18°C° 0 mm 1 mps 724 mmHg 81%
    21:00 +15°C° 0 mm 1 mps 724 mmHg 84%
    22:00 +14°C° 0 mm 1 mps 724 mmHg 87%
    23:00 +13°C° 0 mm 1 mps 724 mmHg 87%

    4 June, Thursday

    Time Temperature Precipitation Wind Pressure Humidity
    00:00 +13°C° 0 mm 1 mps 723 mmHg 86%
    01:00 +12°C° 0 mm 1 mps 723 mmHg 86%
    02:00 +12°C° 0 mm 1 mps 722 mmHg 87%
    03:00 +12°C° 0 mm 1 mps 722 mmHg 87%
    04:00 +12°C° 0 mm 1 mps 722 mmHg 87%
    05:00 +13°C° 0 mm 1 mps 722 mmHg 84%
    06:00 +15°C° 0 mm 1 mps 722 mmHg 81%
    07:00 +16°C° 0 mm 1 mps 722 mmHg 78%
    08:00 +18°C° 0 mm 1 mps 722 mmHg 75%
    09:00 +20°C° 0 mm 1 mps 721 mmHg 72%
    10:00 +20°C° 0 mm 2 mps 721 mmHg 69%
    11:00 +22°C° 0.1 mm 1 mps 721 mmHg 68%
    12:00 +23°C° 0.1 mm 1 mps 721 mmHg 66%
    13:00 +23°C° 0.1 mm 1 mps 720 mmHg 64%
    14:00 +23°C° 0.1 mm 1 mps 719 mmHg 67%
    15:00 +23°C° 0.1 mm 1 mps 719 mmHg 69%
    16:00 +21°C° 0.1 mm 2 mps 718 mmHg 72%
    17:00 +21°C° 0.3 mm 1 mps 718 mmHg 77%
    18:00 +21°C° 0.3 mm 1 mps 717 mmHg 82%
    19:00 +18°C° 0.3 mm 0 mps 717 mmHg 87%
    20:00 +17°C° 1.6 mm 2 mps 717 mmHg 90%
    21:00 +15°C° 1.6 mm 5 mps 718 mmHg 92%
    22:00 +12°C° 1.6 mm 7 mps 718 mmHg 94%
    23:00 +13°C° 0.3 mm 6 mps 718 mmHg 95%

    5 June, Friday

    Time Temperature Precipitation Wind Pressure Humidity
    00:00 +12°C° 0.3 mm 5 mps 718 mmHg 95%
    01:00 +12°C° 0.3 mm 3 mps 718 mmHg 95%
    02:00 +11°C° 0.5 mm 3 mps 718 mmHg 95%
    03:00 +12°C° 0.5 mm 2 mps 718 mmHg 96%
    04:00 +12°C° 0.5 mm 1 mps 718 mmHg 97%
    05:00 +12°C° 1.8 mm 2 mps 718 mmHg 97%
    06:00 +12°C° 1.8 mm 2 mps 718 mmHg 97%
    07:00 +12°C° 1.8 mm 2 mps 719 mmHg 97%
    08:00 +11°C° 1.9 mm 3 mps 719 mmHg 96%
    09:00 +11°C° 1.9 mm 4 mps 719 mmHg 96%
    10:00 +9°C° 1.9 mm 5 mps 720 mmHg 95%
    11:00 +10°C° 1.2 mm 5 mps 720 mmHg 94%
    12:00 +10°C° 1.2 mm 5 mps 721 mmHg 93%
    13:00 +10°C° 1.2 mm 5 mps 721 mmHg 91%
    14:00 +11°C° 0.6 mm 4 mps 721 mmHg 91%
    15:00 +11°C° 0.6 mm 4 mps 722 mmHg 91%
    16:00 +10°C° 0.6 mm 4 mps 722 mmHg 91%
    17:00 +10°C° 0.4 mm 4 mps 722 mmHg 91%
    18:00 +10°C° 0.4 mm 4 mps 723 mmHg 91%
    19:00 +10°C° 0.4 mm 4 mps 723 mmHg 91%
    20:00 +10°C° 0 mm 3 mps 724 mmHg 90%
    21:00 +9°C° 0 mm 3 mps 725 mmHg 90%
    22:00 +9°C° 0 mm 3 mps 725 mmHg 90%
    23:00 +8°C° 0 mm 2 mps 725 mmHg 89%

    6 June, Saturday

    Time Temperature Precipitation Wind Pressure Humidity
    00:00 +8°C° 0 mm 2 mps 725 mmHg 89%
    01:00 +8°C° 0 mm 2 mps 726 mmHg 88%
    02:00 +8°C° 0 mm 3 mps 726 mmHg 89%
    03:00 +7°C° 0 mm 3 mps 727 mmHg 90%
    04:00 +7°C° 0 mm 3 mps 727 mmHg 91%
    05:00 +8°C° 0 mm 4 mps 727 mmHg 88%
    06:00 +10°C° 0 mm 4 mps 728 mmHg 86%
    07:00 +10°C° 0 mm 5 mps 728 mmHg 83%
    08:00 +12°C° 0 mm 5 mps 728 mmHg 75%
    09:00 +14°C° 0 mm 5 mps 728 mmHg 68%
    10:00 +15°C° 0 mm 5 mps 728 mmHg 60%
    11:00 +14°C° 0.1 mm 4 mps 728 mmHg 66%
    12:00 +14°C° 0.1 mm 3 mps 728 mmHg 72%
    13:00 +13°C° 0.1 mm 3 mps 728 mmHg 78%
    14:00 +16°C° 0.1 mm 3 mps 728 mmHg 74%
    15:00 +17°C° 0.1 mm 2 mps 728 mmHg 70%
    16:00 +18°C° 0.1 mm 2 mps 727 mmHg 66%
    17:00 +17°C° 0 mm 2 mps 727 mmHg 70%
    18:00 +18°C° 0 mm 1 mps 727 mmHg 73%
    19:00 +16°C° 0 mm 1 mps 727 mmHg 77%
    20:00 +15°C° 0 mm 1 mps 728 mmHg 78%
    21:00 +14°C° 0 mm 1 mps 728 mmHg 80%
    22:00 +13°C° 0 mm 1 mps 728 mmHg 82%
    23:00 +13°C° 0 mm 1 mps 728 mmHg 83%
    Show more